Point Mugu, CA

5:35 AM PDT on March 25, 2017 (GMT -0700)
Point Mugu Naval Air Station

Weather History for KNTD - February, 2013

Change the Weather History Date:

Tuesday, February 26, 2013

  Actual Average Record
Temperature  
Mean Temperature 51 °F -  
Max Temperature 64 °F 60 °F 79 °F (2002)
Min Temperature 38 °F 43 °F 37 °F (2011)
Degree Days  
Heating Degree Days 14    
Growing Degree Days 1 (Base 50)    
Moisture  
Dew Point 42 °F    
Average Humidity 63    
Maximum Humidity 75    
Minimum Humidity 50    
Precipitation  
Precipitation 0.00 in - - ()
Sea Level Pressure  
Sea Level Pressure 30.06 in    
Wind  
Wind Speed 4 mph (NNW)    
Max Wind Speed 8 mph    
Max Gust Speed -    
Visibility 7 miles    
Events      
Averages and records for this station are not official NWS values.
T = Trace of Precipitation, MM = Missing Value Source: NWS Daily Summary

Daily Weather History Graph

Daily Weather History Graph

Search for Another Location

Airport or City:

Trip Planner

Search our weather history database for the weather conditions in past years. The results will help you decide how hot, cold, wet, or windy it might be!

Date:

Astronomy

Feb. 26, 2013 Rise Set
Actual Time 6:28 AM PST 5:50 PM PST
Civil Twilight 6:03 AM PST 6:15 PM PST
Nautical Twilight 5:34 AM PST 6:44 PM PST
Astronomical Twilight 5:05 AM PST 7:13 PM PST
Moon 7:06 PM PST (2/26) 6:38 AM PST (2/26)
Length of Visible Light 12h 12m
Length of Day
11h 22m
Full, 99% of the Moon is Illuminated
Feb 26
Full
Mar 4
Last Quarter
Mar 11
New
Mar 19
First Quarter
Mar 27
Full

Hourly Weather History & Observations

Time (PST) Temp. Windchill Dew Point Humidity Pressure Visibility Wind Dir Wind Speed Gust Speed Precip Events Conditions
12:54 AM - - - N/A% 30.08 in - Calm Calm - N/A   Clear
1:54 AM - - - N/A% 30.06 in - Calm Calm - N/A   Clear
2:54 AM - - - N/A% 30.04 in - NE 3.5 mph - N/A   Clear
3:54 AM - - - N/A% 30.04 in - NNE 5.8 mph - N/A   Clear
4:54 AM - - - N/A% 30.04 in - North 6.9 mph - N/A   Clear
5:54 AM 39.7 °F 36.5 °F 28.9 °F 65% 30.04 in 7.0 mi NNE 4.6 mph - N/A   Clear
6:54 AM 38.8 °F 35.4 °F 28.6 °F 67% 30.04 in 7.0 mi NE 4.6 mph - N/A   Clear
7:54 AM 44.2 °F 40.3 °F 32.4 °F 63% 30.06 in 7.0 mi NNE 6.9 mph - N/A   Clear
8:54 AM 50.4 °F - 37.0 °F 60% 30.06 in 7.0 mi North 3.5 mph - N/A   Clear
9:54 AM 50.4 °F - 37.0 °F 60% 30.07 in 7.0 mi SSW 5.8 mph - N/A   Clear
10:54 AM 56.8 °F - 43.7 °F 61% 30.06 in 7.0 mi SW 8.1 mph - N/A   Clear
11:54 AM 57.7 °F - 39.0 °F 50% 30.05 in 7.0 mi SW 6.9 mph - N/A   Clear
12:54 PM 59.4 °F - 48.2 °F 67% 30.03 in 7.0 mi SSW 6.9 mph - N/A   Clear
1:54 PM 59.4 °F - 48.2 °F 67% 30.03 in 7.0 mi North - - N/A   Clear
2:54 PM 63.7 °F - 50.7 °F 63% 30.03 in 7.0 mi North - - N/A   Partly Cloudy
3:54 PM 64.4 °F - 46.8 °F 53% 30.02 in 7.0 mi WSW 8.1 mph - N/A   Partly Cloudy
4:54 PM 59.2 °F - 45.3 °F 60% 30.02 in 7.0 mi WSW 5.8 mph - N/A   Partly Cloudy
5:54 PM 58.6 °F - 48.2 °F 68% 30.03 in 7.0 mi Calm Calm - N/A   Partly Cloudy
6:54 PM 58.1 °F - 45.7 °F 63% 30.06 in 7.0 mi Calm Calm - N/A   Clear
7:54 PM 56.8 °F - 47.1 °F 70% 30.07 in 7.0 mi North 3.5 mph - N/A   Clear
8:54 PM 55.9 °F - 42.6 °F 61% 30.09 in 7.0 mi Calm Calm - N/A   Clear
9:54 PM 52.3 °F - 42.4 °F 69% 30.12 in 7.0 mi NW 3.5 mph - N/A   Clear
10:54 PM 50.7 °F - 43.0 °F 75% 30.12 in 7.0 mi NW 5.8 mph - N/A   Clear
11:54 PM - - - N/A% 30.14 in - North 5.8 mph - N/A   Clear